Regional Weather Roundup
Issued by NWS

Home | Current Version | Previous Version | Graphics & Text | Print | Product List | Glossary On
Versions: 1 2 3 4 5 6 7 8 9 10 11 12 13 14 15 16 17 18 19 20 21 22 23 24 25 26 27 28 29 30 31 32 33 34 35 36 37 38 39 40 41 42 43 44 45 46 47 48 49 50
000
ASUS43 KLOT 191603
RWRIL

ILLINOIS REGIONAL WEATHER ROUNDUP
NATIONAL WEATHER SERVICE CHICAGO/ROMEOVILLE IL
1000 AM CST THU JAN 19 2017

NOTE: "FAIR" INDICATES FEW OR NO CLOUDS BELOW 12,000 FEET WITH NO
SIGNIFICANT WEATHER AND/OR OBSTRUCTIONS TO VISIBILITY.

* THESE STATIONS ARE NOT UNDER NWS QUALITY CONTROL. THEY ALSO MAY NOT
  REPORT WEATHER SUCH AS PRECIPITATION OR FOG.

ILZ001-002-007-009-015-016-024-191700-
NORTHWEST ILLINOIS

CITY           SKY/WX    TMP DP  RH WIND       PRES   REMARKS
MOLINE         CLOUDY    36  33  89 NE5       29.91S FOG     WCI  32
STERLING*      CLOUDY    34  34 100 E6        29.94F FOG     WCI  29
SAVANNA*       CLOUDY    34  34  99 E3        29.94R FOG
$$

ILZ003-004-008-010-011-017-018-191700-
NORTH CENTRAL ILLINOIS

CITY           SKY/WX    TMP DP  RH WIND       PRES   REMARKS
ROCKFORD       FOG       34  33  96 SE7       29.98S VSB 3/4 WCI  28
FREEPORT*      FOG       32  32  99 SE5       29.97R VSB<1/4 WCI  27
ROCHELLE*      FOG       33  33 100 CALM      29.96S VSB 3/4
DE KALB*       FOG       34  34  99 SE5       29.96F VSB 1   WCI  30
$$

ILZ005-006-012>014-019>023-191700-
NORTHEAST ILLINOIS

CITY           SKY/WX    TMP DP  RH WIND       PRES   REMARKS
CHICAGO-OHARE  CLOUDY    36  35  96 SE5       29.98F FOG     WCI  32
CHICAGO-MIDWAY CLOUDY    36  33  89 SE7       29.98F FOG     WCI  30
AURORA         CLOUDY    36  34  92 SE7       29.97F FOG     WCI  30
LANSING*       PTSUNNY   37  37  99 SE8       29.99F FOG     WCI  31
JOLIET*        PTSUNNY   37  36  96 SE6       29.98S FOG     WCI  32
WAUKEGAN       FOG       35  35 100 S6        29.99R VSB 1/4 WCI  30
DUPAGE AIRPORT FOG       36  33  89 SE5       29.97F VSB 1/4 WCI  32
WHEELING       CLOUDY    36  34  92 S3        30.00F FOG
MORRIS*        MOSUNNY   36  34  94 CALM      29.96F FOG
ROMEOVILLE*    PTSUNNY   36  36 100 SE6       29.98S FOG     WCI  31
NORTHERLY ISL    N/A     35  33  92 SE6         N/A  WCI  30
$$

LMZ740>746-191700-
SOUTHERN LAKE MICHIGAN

STATION/POSITION SKY/WX   TEMP    WIND        PRES    VSBY  WAVE
                          AIR SEA DIR/SP/G                  HT/PER
                          (F)     (DEG/KT/KT) (MB)    (MI)  (FT/S)
HARRISON CRIB              35     160/  8/  9   N/A
BURNHAM HARBOR             35     110/  4/  6   N/A
CALUMET HARBOR             36     150/  5/  6 1015.5F
BURNS HARBOR               37     160/  5/ 10 1016.9F
$$

ILZ025>027-034>036-040-047-049-050-058-095>099-191700-
WEST-CENTRAL ILLINOIS

CITY           SKY/WX    TMP DP  RH WIND       PRES   REMARKS
QUINCY         LGT RAIN  41  41 100 S8        29.88S VSB 1
GALESBURG*     CLOUDY    36  36 100 E8        29.89F FOG     WCI  29
MACOMB*        CLOUDY    37  37 100 SE12      29.92S FOG     WCI  29
JACKSONVILLE*  CLOUDY    43  40  91 E10       29.89F
PITTSFIELD*    CLOUDY    42  41  97 SE6       29.90F FOG
$$

ILZ028>032-037-038-041>044-048-051>054-059>061-191700-
CENTRAL ILLINOIS

CITY           SKY/WX    TMP DP  RH WIND       PRES   REMARKS
BLOOMINGTON    PTSUNNY   38  36  92 SE12      29.95S FOG     WCI  30
DECATUR        PTSUNNY   40  39  97 SE10      29.95F FOG
PEORIA         MOSUNNY   39  37  92 SE7       29.93S FOG     WCI  34
LACON*         PTSUNNY   37  35  96 SE6       29.95R FOG     WCI  32
LINCOLN*       CLOUDY    40  39  95 SE8       29.94F FOG
SPRINGFIELD    CLOUDY    43  39  86 SE14      29.93S FOG
TAYLORVILLE    CLOUDY    41  39  93 E8        29.94F FOG
$$

ILZ033-039-045-046-055>057-062-063-191700-
EAST-CENTRAL ILLINOIS

CITY           SKY/WX    TMP DP  RH WIND       PRES   REMARKS
CHAMPAIGN      PTSUNNY   39  37  92 SE13      29.97R FOG     WCI  31
MATTOON        CLOUDY    41  37  86 SE7       29.95F
PARIS*         CLOUDY    39  37  93 SE7       29.99F FOG     WCI  34
$$

ILZ079-100>102-191700-
SOUTHWEST ILLINOIS

CITY           SKY/WX    TMP DP  RH WIND       PRES   REMARKS
ALTON          CLOUDY    41  41 100 E8        29.91F FOG
CAHOKIA*       CLOUDY    45  42  89 SE3       29.92R
SPARTA*        CLOUDY    44  42  94 E8        29.92S
$$

ILZ064>066-069>071-074>076-080>082-084>086-088>090-092>094-191700-
SOUTH-CENTRAL ILLINOIS

CITY           SKY/WX    TMP DP  RH WIND       PRES   REMARKS
CARBONDALE     LGT RAIN  45  44  97 NE5       29.92S FOG
CAIRO*         LGT RAIN  48  48 100 NE6       29.88F
EFFINGHAM*     CLOUDY    42  41  95 E7        29.97F FOG
MARION         DRIZZLE   46  46 100 E7        29.93
MT. VERNON     LGT RAIN  45  40  82 E6        29.95R
CENTRALIA*     LGT RAIN  46  42  87 E7        29.93F
SALEM*         CLOUDY    45  40  84 E5        29.93F
$$

ILZ067-068-072-073-078-083-087-091-191700-
SOUTHEAST ILLINOIS

CITY           SKY/WX    TMP DP  RH WIND       PRES   REMARKS
LAWRENCEVILLE  CLOUDY    44  40  85 E8        29.99S
FLORA*         CLOUDY    45  40  83 E7        29.96F
FAIRFIELD*     CLOUDY    45  40  83 E5        29.94F
HARRISBURG*    LGT RAIN  45  43  93 E8        29.94S
ROBINSON*      CLOUDY    42  38  88 SE8       30.01S
CARMI*         CLOUDY    46  42  86 SE9       29.96R
$$

ABBREVIATIONS USED IN REMARKS
   TC - TEMPERATURE IN CELSIUS
  WCI - WIND CHILL INDEX
   HX - HEAT INDEX
  VSB - VISIBILITY
$$





USA.gov is the U.S. government's official web portal to all federal, state and local government web resources and services.